| time (UTC) | temp C | wind direction | speed KPH | gust KPH | rain 1hr cm | rain 24hr cm | rain mn cm | humidity % | barometer mb |
| 20260506124545 | 12 | 158 | 6.4 | 19.3 | 0.00 | 0.00 | 0.00 | 91 | 1017.6 |
| 20260506124024 | 12 | 141 | 6.4 | 30.6 | 0.00 | 0.00 | 0.00 | 91 | 1017.7 |
| 20260506123524 | 11 | 131 | 14.5 | 30.6 | 0.00 | 0.00 | 0.00 | 90 | 1017.8 |
| 20260506123041 | 11 | 135 | 12.9 | 27.4 | 0.00 | 0.00 | 0.00 | 90 | 1017.7 |
| 20260506122522 | 11 | 146 | 11.3 | 17.7 | 0.00 | 0.00 | 0.00 | 90 | 1017.7 |
| 20260506122024 | 11 | 117 | 8.0 | 12.9 | 0.00 | 0.00 | 0.00 | 90 | 1017.6 |
| 20260506121540 | 11 | 141 | 6.4 | 14.5 | 0.00 | 0.00 | 0.00 | 91 | 1017.7 |
| 20260506121025 | 11 | 130 | 6.4 | 14.5 | 0.00 | 0.00 | 0.00 | 91 | 1017.9 |
| 20260506120525 | 11 | 205 | 4.8 | 12.9 | 0.00 | 0.00 | 0.00 | 92 | 1017.8 |
| 20260506120040 | 11 | 137 | 8.0 | 16.1 | 0.00 | 0.00 | 0.00 | 91 | 1017.7 |
| 20260506115524 | 11 | 120 | 9.7 | 16.1 | 0.00 | 0.00 | 0.00 | 91 | 1017.6 |
| 20260506115024 | 11 | 108 | 8.0 | 12.9 | 0.00 | 0.00 | 0.00 | 90 | 1017.6 |
| 20260506114537 | 11 | 131 | 8.0 | 12.9 | 0.00 | 0.00 | 0.00 | 91 | 1017.6 |
| 20260506114024 | 11 | 112 | 6.4 | 11.3 | 0.00 | 0.00 | 0.00 | 91 | 1017.5 |
| 20260506113521 | 11 | 144 | 6.4 | 19.3 | 0.00 | 0.00 | 0.00 | 91 | 1017.4 |
| 20260506113037 | 11 | 251 | 9.7 | 19.3 | 0.00 | 0.00 | 0.00 | 92 | 1017.4 |
| 20260506112521 | 11 | 125 | 12.9 | 19.3 | 0.00 | 0.00 | 0.00 | 92 | 1017.2 |
| 20260506112025 | 11 | 103 | 9.7 | 16.1 | 0.00 | 0.00 | 0.00 | 92 | 1017.1 |
| 20260506111543 | 11 | 136 | 8.0 | 19.3 | 0.00 | 0.00 | 0.00 | 91 | 1017.1 |
| 20260506111024 | 11 | 89 | 8.0 | 19.3 | 0.00 | 0.00 | 0.00 | 91 | 1016.9 |
| 20260506110521 | 11 | 75 | 9.7 | 19.3 | 0.00 | 0.00 | 0.00 | 91 | 1016.9 |
| 20260506110043 | 11 | 128 | 6.4 | 17.7 | 0.00 | 0.00 | 0.00 | 91 | 1017.1 |
| 20260506105526 | 11 | 139 | 9.7 | 17.7 | 0.00 | 0.00 | 0.00 | 91 | 1016.9 |
| 20260506105028 | 11 | 111 | 6.4 | 16.1 | 0.00 | 0.00 | 0.00 | 92 | 1017.0 |
| 20260506104547 | 11 | 129 | 8.0 | 16.1 | 0.00 | 0.00 | 0.00 | 93 | 1016.9 |
| 20260506104027 | 11 | 137 | 6.4 | 14.5 | 0.00 | 0.00 | 0.00 | 93 | 1016.8 |
| 20260506103523 | 11 | 142 | 8.0 | 16.1 | 0.00 | 0.00 | 0.00 | 93 | 1016.7 |
| 20260506103040 | 11 | 77 | 8.0 | 16.1 | 0.00 | 0.00 | 0.00 | 93 | 1016.5 |
| 20260506102525 | 11 | 107 | 6.4 | 11.3 | 0.00 | 0.00 | 0.00 | 93 | 1016.5 |
| 20260506102022 | 11 | 73 | 8.0 | 11.3 | 0.00 | 0.00 | 0.00 | 92 | 1016.4 |
| 20260506101537 | 11 | 110 | 4.8 | 9.7 | 0.00 | 0.00 | 0.00 | 92 | 1016.4 |
| 20260506101021 | 11 | 97 | 4.8 | 9.7 | 0.00 | 0.00 | 0.00 | 92 | 1016.3 |
| 20260506100524 | 11 | 82 | 4.8 | 11.3 | 0.00 | 0.00 | 0.00 | 92 | 1016.3 |
| 20260506100044 | 11 | 123 | 6.4 | 11.3 | 0.00 | 0.00 | 0.00 | 92 | 1016.4 |
| 20260506095521 | 11 | 100 | 6.4 | 14.5 | 0.00 | 0.00 | 0.00 | 92 | 1016.3 |
| 20260506095021 | 11 | 79 | 6.4 | 14.5 | 0.00 | 0.00 | 0.00 | 92 | 1016.3 |
| 20260506094546 | 11 | 68 | 6.4 | 9.7 | 0.00 | 0.00 | 0.00 | 92 | 1016.3 |
| 20260506094022 | 11 | 83 | 4.8 | 9.7 | 0.00 | 0.00 | 0.00 | 92 | 1016.2 |
| 20260506093522 | 11 | 102 | 6.4 | 9.7 | 0.00 | 0.00 | 0.00 | 92 | 1016.2 |
| 20260506093043 | 11 | 89 | 4.8 | 8.0 | 0.00 | 0.00 | 0.00 | 91 | 1016.1 |
| 20260506092521 | 11 | 105 | 4.8 | 6.4 | 0.00 | 0.00 | 0.00 | 91 | 1016.2 |
| 20260506092021 | 11 | 73 | 3.2 | 11.3 | 0.00 | 0.00 | 0.00 | 91 | 1016.1 |
| 20260506091543 | 11 | 94 | 6.4 | 11.3 | 0.00 | 0.00 | 0.00 | 91 | 1016.1 |
| 20260506091021 | 11 | 91 | 4.8 | 14.5 | 0.00 | 0.00 | 0.00 | 91 | 1016.1 |
| 20260506090521 | 11 | 104 | 6.4 | 14.5 | 0.00 | 0.00 | 0.00 | 91 | 1016.0 |
| 20260506090041 | 11 | 94 | 4.8 | 9.7 | 0.00 | 0.00 | 0.00 | 91 | 1015.9 |
| 20260506085521 | 11 | 107 | 3.2 | 6.4 | 0.00 | 0.00 | 0.00 | 91 | 1015.8 |
| 20260506085020 | 11 | 101 | 3.2 | 8.0 | 0.00 | 0.00 | 0.00 | 90 | 1015.9 |
| 20260506084538 | 11 | 99 | 3.2 | 8.0 | 0.00 | 0.00 | 0.00 | 90 | 1016.0 |
| 20260506084022 | 11 | 98 | 4.8 | 8.0 | 0.00 | 0.00 | 0.00 | 90 | 1015.9 |
| 20260506083522 | 12 | 124 | 4.8 | 8.0 | 0.00 | 0.00 | 0.00 | 90 | 1015.9 |
| 20260506083038 | 12 | 84 | 3.2 | 8.0 | 0.00 | 0.00 | 0.00 | 90 | 1015.9 |
| 20260506082521 | 12 | 86 | 6.4 | 9.7 | 0.00 | 0.00 | 0.00 | 90 | 1015.9 |
| 20260506082021 | 12 | 91 | 4.8 | 12.9 | 0.00 | 0.00 | 0.00 | 90 | 1016.0 |
| 20260506081544 | 12 | 108 | 1.6 | 12.9 | 0.00 | 0.00 | 0.00 | 90 | 1016.0 |
| 20260506081021 | 12 | 133 | 3.2 | 11.3 | 0.00 | 0.00 | 0.00 | 90 | 1015.8 |
| 20260506080521 | 12 | 116 | 4.8 | 11.3 | 0.00 | 0.00 | 0.00 | 90 | 1015.9 |
| 20260506073521 | 12 | 85 | 3.2 | 9.7 | 0.00 | 0.00 | 0.00 | 89 | 1015.6 |
| 20260506073037 | 12 | 130 | 4.8 | 9.7 | 0.00 | 0.00 | 0.00 | 89 | 1015.5 |
| 20260506072524 | 12 | 120 | 3.2 | 8.0 | 0.00 | 0.00 | 0.00 | 89 | 1015.7 |
| 20260506072022 | 12 | 103 | 4.8 | 8.0 | 0.00 | 0.00 | 0.00 | 89 | 1015.6 |
| 20260506071537 | 12 | 101 | 3.2 | 8.0 | 0.00 | 0.00 | 0.00 | 89 | 1015.5 |
| 20260506071021 | 12 | 107 | 4.8 | 9.7 | 0.00 | 0.00 | 0.00 | 89 | 1015.5 |
| 20260506070520 | 12 | 106 | 3.2 | 9.7 | 0.00 | 0.00 | 0.00 | 89 | 1015.5 |
| 20260506062021 | 13 | 98 | 1.6 | 6.4 | 0.00 | 0.00 | 0.00 | 88 | 1015.2 |
| 20260506061540 | 13 | 98 | 3.2 | 6.4 | 0.00 | 0.00 | 0.00 | 88 | 1015.1 |
| 20260506061023 | 13 | 145 | 3.2 | 6.4 | 0.00 | 0.00 | 0.00 | 88 | 1015.1 |
| 20260506060521 | 13 | 77 | 3.2 | 9.7 | 0.00 | 0.00 | 0.00 | 87 | 1015.1 |
| 20260506051021 | 14 | 127 | 4.8 | 16.1 | 0.00 | 0.00 | 0.00 | 84 | 1014.8 |
| 20260506050521 | 14 | 110 | 8.0 | 19.3 | 0.00 | 0.00 | 0.00 | 83 | 1014.8 |
| 20260506045021 | 14 | 123 | 9.7 | 17.7 | 0.00 | 0.00 | 0.00 | 83 | 1014.7 |
| 20260506044548 | 14 | 132 | 8.0 | 17.7 | 0.00 | 0.00 | 0.00 | 83 | 1014.6 |
| 20260506044020 | 14 | 131 | 9.7 | 16.1 | 0.00 | 0.00 | 0.00 | 83 | 1014.6 |
| 20260506043520 | 14 | 124 | 8.0 | 16.1 | 0.00 | 0.00 | 0.00 | 83 | 1014.6 |
| 20260506043037 | 15 | 115 | 8.0 | 16.1 | 0.00 | 0.00 | 0.00 | 83 | 1014.5 |
| 20260506042522 | 15 | 143 | 8.0 | 14.5 | 0.00 | 0.00 | 0.00 | 83 | 1014.5 |
| 20260506042021 | 15 | 148 | 8.0 | 14.5 | 0.00 | 0.00 | 0.00 | 83 | 1014.4 |
| 20260506041548 | 15 | 133 | 4.8 | 12.9 | 0.00 | 0.00 | 0.00 | 83 | 1014.4 |
| 20260506041025 | 14 | 120 | 3.2 | 11.3 | 0.00 | 0.00 | 0.00 | 83 | 1014.4 |
| 20260506040525 | 14 | 133 | 3.2 | 11.3 | 0.00 | 0.00 | 0.00 | 83 | 1014.3 |
| 20260506040044 | 15 | 126 | 6.4 | 14.5 | 0.00 | 0.00 | 0.00 | 82 | 1014.3 |
| 20260506035521 | 15 | 129 | 6.4 | 16.1 | 0.00 | 0.00 | 0.00 | 82 | 1014.2 |
| 20260506035021 | 15 | 136 | 8.0 | 16.1 | 0.00 | 0.00 | 0.00 | 82 | 1014.1 |
| 20260506034547 | 15 | 144 | 8.0 | 16.1 | 0.00 | 0.00 | 0.00 | 82 | 1014.2 |
| 20260506034021 | 15 | 217 | 9.7 | 14.5 | 0.00 | 0.00 | 0.00 | 82 | 1014.0 |
| 20260506033521 | 15 | 148 | 6.4 | 17.7 | 0.00 | 0.00 | 0.00 | 82 | 1013.9 |
| 20260506033042 | 15 | 130 | 6.4 | 17.7 | 0.00 | 0.00 | 0.00 | 82 | 1013.9 |
| 20260506032521 | 15 | 139 | 8.0 | 17.7 | 0.00 | 0.00 | 0.00 | 82 | 1013.8 |
| 20260506032022 | 15 | 127 | 8.0 | 16.1 | 0.00 | 0.00 | 0.00 | 82 | 1013.9 |
| 20260506031539 | 15 | 136 | 8.0 | 17.7 | 0.00 | 0.00 | 0.00 | 82 | 1013.9 |
| 20260506031021 | 15 | 178 | 8.0 | 17.7 | 0.00 | 0.00 | 0.00 | 82 | 1013.9 |
| 20260506030524 | 15 | 134 | 8.0 | 16.1 | 0.00 | 0.00 | 0.00 | 81 | 1013.9 |
| 20260506030037 | 15 | 117 | 6.4 | 14.5 | 0.00 | 0.00 | 0.00 | 81 | 1013.8 |
| 20260506025521 | 15 | 245 | 6.4 | 14.5 | 0.00 | 0.00 | 0.00 | 81 | 1013.8 |
| 20260506025020 | 16 | 136 | 6.4 | 14.5 | 0.00 | 0.00 | 0.00 | 80 | 1013.8 |
| 20260506024557 | 16 | 124 | 6.4 | 16.1 | 0.00 | 0.00 | 0.00 | 80 | 1013.9 |
| 20260506024023 | 16 | 144 | 8.0 | 16.1 | 0.00 | 0.00 | 0.00 | 80 | 1013.9 |
| 20260506023524 | 16 | 191 | 4.8 | 14.5 | 0.00 | 0.00 | 0.00 | 80 | 1013.9 |
| 20260506023044 | 16 | 122 | 8.0 | 14.5 | 0.00 | 0.00 | 0.00 | 79 | 1013.9 |
| 20260506022525 | 16 | 146 | 4.8 | 11.3 | 0.00 | 0.00 | 0.00 | 79 | 1013.9 |
| 20260506022022 | 16 | 146 | 4.8 | 17.7 | 0.00 | 0.00 | 0.00 | 79 | 1014.0 |
| 20260506021551 | 16 | 120 | 8.0 | 17.7 | 0.00 | 0.00 | 0.00 | 79 | 1014.0 |
| 20260506021022 | 16 | 176 | 6.4 | 16.1 | 0.00 | 0.00 | 0.00 | 79 | 1014.0 |
| 20260506020523 | 16 | 141 | 6.4 | 16.1 | 0.00 | 0.00 | 0.00 | 79 | 1014.0 |
| 20260506020042 | 16 | 155 | 6.4 | 16.1 | 0.00 | 0.00 | 0.00 | 78 | 1014.0 |
| 20260506015524 | 16 | 150 | 6.4 | 14.5 | 0.00 | 0.00 | 0.00 | 78 | 1014.0 |
| 20260506015021 | 16 | 149 | 6.4 | 14.5 | 0.00 | 0.00 | 0.00 | 77 | 1014.0 |
| 20260506014537 | 16 | 226 | 4.8 | 12.9 | 0.00 | 0.00 | 0.00 | 77 | 1014.0 |
| 20260506014020 | 16 | 143 | 6.4 | 12.9 | 0.00 | 0.00 | 0.00 | 76 | 1014.1 |
| 20260506013522 | 16 | 153 | 4.8 | 12.9 | 0.00 | 0.00 | 0.00 | 77 | 1014.1 |
| 20260506013044 | 16 | 142 | 6.4 | 12.9 | 0.00 | 0.00 | 0.00 | 77 | 1014.1 |
| 20260506012524 | 16 | 205 | 4.8 | 12.9 | 0.00 | 0.00 | 0.00 | 77 | 1014.1 |
| 20260506012023 | 16 | 130 | 6.4 | 12.9 | 0.00 | 0.00 | 0.00 | 77 | 1014.1 |
| 20260506011609 | 16 | 149 | 6.4 | 12.9 | 0.00 | 0.00 | 0.00 | 77 | 1014.0 |
| 20260506011024 | 16 | 151 | 6.4 | 16.1 | 0.00 | 0.00 | 0.00 | 77 | 1014.0 |
| 20260506010523 | 16 | 184 | 6.4 | 16.1 | 0.00 | 0.00 | 0.00 | 77 | 1014.1 |
| 20260506010044 | 16 | 180 | 6.4 | 16.1 | 0.00 | 0.00 | 0.00 | 77 | 1014.2 |
| 20260506005522 | 16 | 108 | 6.4 | 17.7 | 0.00 | 0.00 | 0.00 | 76 | 1014.1 |
| 20260506005021 | 16 | 219 | 4.8 | 17.7 | 0.00 | 0.00 | 0.00 | 78 | 1014.1 |
| 20260506004545 | 16 | 146 | 6.4 | 17.7 | 0.00 | 0.00 | 0.00 | 78 | 1014.1 |
| 20260506004021 | 16 | 157 | 8.0 | 17.7 | 0.00 | 0.00 | 0.00 | 78 | 1014.2 |
| 20260506003521 | 16 | 128 | 8.0 | 16.1 | 0.00 | 0.00 | 0.00 | 78 | 1014.1 |
| 20260506003042 | 16 | 131 | 8.0 | 16.1 | 0.00 | 0.00 | 0.00 | 79 | 1014.2 |
| 20260506002521 | 16 | 229 | 8.0 | 17.7 | 0.00 | 0.00 | 0.00 | 78 | 1014.3 |
| 20260506002022 | 16 | 185 | 8.0 | 17.7 | 0.00 | 0.00 | 0.00 | 78 | 1014.3 |
| 20260506001541 | 16 | 133 | 8.0 | 17.7 | 0.00 | 0.00 | 0.00 | 78 | 1014.3 |
| 20260506001021 | 16 | 141 | 6.4 | 17.7 | 0.00 | 0.00 | 0.00 | 78 | 1014.3 |
| 20260506000521 | 16 | 210 | 8.0 | 17.7 | 0.00 | 0.00 | 0.00 | 78 | 1014.4 |
| 20260506000045 | 16 | 123 | 8.0 | 17.7 | 0.00 | 0.00 | 0.00 | 77 | 1014.4 |
| 20260505235524 | 16 | 130 | 8.0 | 17.7 | 0.00 | 0.00 | 0.00 | 78 | 1014.5 |
| 20260505235020 | 16 | 159 | 6.4 | 14.5 | 0.00 | 0.00 | 0.00 | 78 | 1014.5 |
| 20260505234546 | 16 | 165 | 6.4 | 16.1 | 0.00 | 0.00 | 0.00 | 78 | 1014.6 |
| 20260505234026 | 16 | 173 | 6.4 | 16.1 | 0.00 | 0.00 | 0.00 | 78 | 1014.6 |
| 20260505233522 | 16 | 146 | 8.0 | 17.7 | 0.00 | 0.00 | 0.00 | 77 | 1014.6 |
| 20260505233045 | 16 | 210 | 8.0 | 17.7 | 0.00 | 0.00 | 0.00 | 78 | 1014.7 |
| 20260505232527 | 16 | 143 | 8.0 | 17.7 | 0.00 | 0.00 | 0.00 | 78 | 1014.7 |
| 20260505232023 | 16 | 141 | 9.7 | 17.7 | 0.00 | 0.00 | 0.00 | 78 | 1014.8 |
| 20260505231544 | 16 | 179 | 6.4 | 14.5 | 0.00 | 0.00 | 0.00 | 78 | 1014.9 |
| 20260505231021 | 16 | 148 | 6.4 | 17.7 | 0.00 | 0.00 | 0.00 | 79 | 1014.9 |
| 20260505230521 | 16 | 205 | 8.0 | 17.7 | 0.00 | 0.00 | 0.00 | 78 | 1015.0 |
| 20260505230038 | 16 | 131 | 8.0 | 17.7 | 0.00 | 0.00 | 0.00 | 79 | 1014.9 |
| 20260505225524 | 16 | 182 | 8.0 | 17.7 | 0.00 | 0.00 | 0.00 | 78 | 1014.9 |
| 20260505225021 | 16 | 176 | 9.7 | 17.7 | 0.00 | 0.00 | 0.00 | 78 | 1015.1 |
| 20260505224538 | 16 | 172 | 6.4 | 17.7 | 0.00 | 0.00 | 0.00 | 79 | 1015.2 |
| 20260505224020 | 16 | 154 | 6.4 | 19.3 | 0.00 | 0.00 | 0.00 | 78 | 1015.2 |
| 20260505223521 | 16 | 153 | 8.0 | 19.3 | 0.00 | 0.00 | 0.00 | 78 | 1015.3 |
| 20260505223037 | 16 | 158 | 8.0 | 17.7 | 0.00 | 0.00 | 0.00 | 77 | 1015.3 |
| 20260505222523 | 16 | 167 | 6.4 | 12.9 | 0.00 | 0.00 | 0.00 | 78 | 1015.3 |
| 20260505222023 | 16 | 155 | 6.4 | 14.5 | 0.00 | 0.00 | 0.00 | 78 | 1015.2 |
| 20260505221536 | 16 | 207 | 8.0 | 14.5 | 0.00 | 0.00 | 0.00 | 78 | 1015.3 |
| 20260505221025 | 16 | 187 | 6.4 | 17.7 | 0.00 | 0.00 | 0.00 | 78 | 1015.3 |
| 20260505220520 | 16 | 194 | 6.4 | 17.7 | 0.00 | 0.00 | 0.00 | 79 | 1015.2 |
| 20260505220056 | 16 | 211 | 8.0 | 16.1 | 0.00 | 0.00 | 0.00 | 79 | 1015.4 |
| 20260505215523 | 16 | 159 | 8.0 | 16.1 | 0.00 | 0.00 | 0.00 | 79 | 1015.4 |
| 20260505215023 | 16 | 160 | 6.4 | 16.1 | 0.00 | 0.00 | 0.00 | 79 | 1015.5 |
| 20260505214550 | 16 | 141 | 8.0 | 16.1 | 0.00 | 0.00 | 0.00 | 79 | 1015.6 |
| 20260505214023 | 16 | 184 | 8.0 | 17.7 | 0.00 | 0.00 | 0.00 | 79 | 1015.6 |
| 20260505213521 | 16 | 184 | 8.0 | 17.7 | 0.00 | 0.00 | 0.00 | 79 | 1015.7 |
| 20260505213041 | 16 | 209 | 8.0 | 17.7 | 0.00 | 0.00 | 0.00 | 79 | 1015.6 |
| 20260505212521 | 16 | 216 | 9.7 | 17.7 | 0.00 | 0.00 | 0.00 | 79 | 1015.7 |
| 20260505212021 | 16 | 179 | 9.7 | 17.7 | 0.00 | 0.00 | 0.00 | 79 | 1015.7 |
| 20260505211542 | 16 | 185 | 8.0 | 17.7 | 0.00 | 0.00 | 0.00 | 80 | 1015.7 |
| 20260505211021 | 16 | 161 | 9.7 | 19.3 | 0.00 | 0.00 | 0.00 | 79 | 1015.7 |
| 20260505210520 | 16 | 130 | 8.0 | 19.3 | 0.00 | 0.00 | 0.00 | 80 | 1015.8 |
| 20260505210045 | 16 | 201 | 9.7 | 19.3 | 0.00 | 0.00 | 0.00 | 80 | 1015.8 |
| 20260505205526 | 16 | 160 | 11.3 | 17.7 | 0.00 | 0.00 | 0.00 | 80 | 1015.9 |
| 20260505205024 | 16 | 179 | 8.0 | 19.3 | 0.00 | 0.00 | 0.00 | 80 | 1015.9 |
| 20260505204545 | 16 | 65 | 9.7 | 19.3 | 0.00 | 0.00 | 0.00 | 80 | 1015.8 |
| 20260505204023 | 16 | 179 | 11.3 | 19.3 | 0.00 | 0.00 | 0.00 | 80 | 1015.8 |
| 20260505203523 | 16 | 164 | 9.7 | 16.1 | 0.00 | 0.00 | 0.00 | 80 | 1015.9 |
| 20260505203043 | 16 | 183 | 8.0 | 16.1 | 0.00 | 0.00 | 0.00 | 80 | 1015.8 |
| 20260505202520 | 16 | 158 | 8.0 | 17.7 | 0.00 | 0.00 | 0.00 | 80 | 1015.8 |
| 20260505202022 | 16 | 174 | 8.0 | 17.7 | 0.00 | 0.00 | 0.00 | 80 | 1015.8 |
| 20260505201546 | 16 | 146 | 8.0 | 14.5 | 0.00 | 0.00 | 0.00 | 80 | 1015.8 |
| 20260505201022 | 16 | 167 | 8.0 | 16.1 | 0.00 | 0.00 | 0.00 | 80 | 1015.7 |
| 20260505200522 | 16 | 205 | 8.0 | 16.1 | 0.00 | 0.00 | 0.00 | 80 | 1015.8 |
| 20260505200040 | 16 | 191 | 8.0 | 16.1 | 0.00 | 0.00 | 0.00 | 80 | 1015.8 |
| 20260505195522 | 16 | 157 | 9.7 | 16.1 | 0.00 | 0.00 | 0.00 | 80 | 1015.8 |
| 20260505195022 | 16 | 137 | 9.7 | 16.1 | 0.00 | 0.00 | 0.00 | 81 | 1015.9 |
| 20260505194538 | 16 | 283 | 8.0 | 14.5 | 0.00 | 0.00 | 0.00 | 81 | 1015.9 |
| 20260505194027 | 16 | 172 | 8.0 | 12.9 | 0.00 | 0.00 | 0.00 | 81 | 1016.0 |
| 20260505193522 | 16 | 236 | 6.4 | 11.3 | 0.00 | 0.00 | 0.00 | 82 | 1015.9 |
| 20260505193042 | 16 | 172 | 4.8 | 16.1 | 0.00 | 0.00 | 0.00 | 83 | 1015.8 |
| 20260505192522 | 16 | 203 | 6.4 | 16.1 | 0.00 | 0.00 | 0.00 | 82 | 1015.9 |
| 20260505192022 | 15 | 156 | 6.4 | 16.1 | 0.00 | 0.00 | 0.00 | 83 | 1016.0 |
| 20260505191548 | 15 | 129 | 8.0 | 16.1 | 0.00 | 0.00 | 0.00 | 81 | 1015.8 |
| 20260505191022 | 16 | 174 | 9.7 | 16.1 | 0.00 | 0.00 | 0.00 | 81 | 1015.8 |
| 20260505190526 | 16 | 167 | 6.4 | 16.1 | 0.00 | 0.00 | 0.00 | 82 | 1015.8 |
| 20260505190043 | 16 | 210 | 6.4 | 16.1 | 0.00 | 0.00 | 0.00 | 81 | 1015.9 |
| 20260505185522 | 16 | 208 | 8.0 | 16.1 | 0.00 | 0.00 | 0.00 | 82 | 1015.9 |
| 20260505185024 | 16 | 97 | 6.4 | 14.5 | 0.00 | 0.00 | 0.00 | 82 | 1015.9 |
| 20260505184548 | 16 | 148 | 6.4 | 14.5 | 0.00 | 0.00 | 0.00 | 83 | 1015.9 |
| 20260505184022 | 15 | 224 | 6.4 | 17.7 | 0.00 | 0.00 | 0.00 | 83 | 1015.8 |
| 20260505183523 | 15 | 120 | 8.0 | 17.7 | 0.00 | 0.00 | 0.00 | 83 | 1015.9 |
| 20260505183047 | 15 | 147 | 8.0 | 14.5 | 0.00 | 0.00 | 0.00 | 84 | 1015.7 |
| 20260505182524 | 15 | 174 | 6.4 | 16.1 | 0.00 | 0.00 | 0.00 | 85 | 1015.8 |
| 20260505182022 | 15 | 166 | 8.0 | 16.1 | 0.00 | 0.00 | 0.00 | 85 | 1015.7 |
| 20260505181544 | 14 | 184 | 4.8 | 16.1 | 0.00 | 0.00 | 0.00 | 86 | 1015.8 |
| 20260505181026 | 14 | 171 | 4.8 | 16.1 | 0.00 | 0.00 | 0.00 | 87 | 1015.8 |
| 20260505180522 | 14 | 153 | 6.4 | 16.1 | 0.00 | 0.00 | 0.00 | 87 | 1015.8 |
| 20260505180044 | 13 | 150 | 6.4 | 14.5 | 0.00 | 0.00 | 0.00 | 88 | 1015.8 |
| 20260505175522 | 13 | 202 | 6.4 | 14.5 | 0.00 | 0.00 | 0.00 | 87 | 1015.8 |
| 20260505175022 | 13 | 139 | 4.8 | 12.9 | 0.00 | 0.00 | 0.00 | 87 | 1015.7 |
| 20260505174543 | 13 | 182 | 4.8 | 14.5 | 0.00 | 0.00 | 0.00 | 88 | 1015.7 |
| 20260505174021 | 13 | 141 | 6.4 | 14.5 | 0.00 | 0.00 | 0.00 | 88 | 1015.7 |
| 20260505173521 | 13 | 176 | 6.4 | 16.1 | 0.00 | 0.00 | 0.00 | 88 | 1015.7 |
| 20260505173041 | 13 | 167 | 6.4 | 16.1 | 0.00 | 0.00 | 0.00 | 89 | 1015.6 |
| 20260505172522 | 13 | 181 | 4.8 | 14.5 | 0.00 | 0.00 | 0.00 | 90 | 1015.8 |
| 20260505172022 | 13 | 138 | 4.8 | 14.5 | 0.00 | 0.00 | 0.00 | 90 | 1015.8 |
| 20260505171548 | 13 | 146 | 6.4 | 12.9 | 0.00 | 0.00 | 0.00 | 90 | 1015.8 |
| 20260505171023 | 13 | 170 | 6.4 | 14.5 | 0.00 | 0.00 | 0.00 | 90 | 1015.7 |
| 20260505170522 | 13 | 227 | 6.4 | 14.5 | 0.00 | 0.00 | 0.00 | 91 | 1015.7 |
| 20260505170038 | 12 | 154 | 6.4 | 12.9 | 0.00 | 0.00 | 0.00 | 90 | 1015.7 |
| 20260505165523 | 12 | 120 | 4.8 | 11.3 | 0.00 | 0.00 | 0.00 | 91 | 1015.6 |
| 20260505165024 | 12 | 149 | 4.8 | 14.5 | 0.00 | 0.00 | 0.00 | 91 | 1015.6 |
| 20260505164553 | 12 | 124 | 8.0 | 14.5 | 0.00 | 0.00 | 0.00 | 90 | 1015.5 |
| 20260505164021 | 12 | 238 | 6.4 | 14.5 | 0.00 | 0.00 | 0.00 | 91 | 1015.5 |
| 20260505163523 | 12 | 138 | 4.8 | 14.5 | 0.00 | 0.00 | 0.00 | 91 | 1015.6 |
| 20260505163043 | 12 | 158 | 6.4 | 12.9 | 0.00 | 0.00 | 0.00 | 91 | 1015.6 |
| 20260505162523 | 12 | 161 | 6.4 | 12.9 | 0.00 | 0.00 | 0.00 | 91 | 1015.5 |
| 20260505162023 | 12 | 159 | 6.4 | 16.1 | 0.00 | 0.00 | 0.00 | 91 | 1015.4 |
| 20260505161551 | 12 | 176 | 6.4 | 16.1 | 0.00 | 0.00 | 0.00 | 91 | 1015.5 |
| 20260505161023 | 12 | 227 | 4.8 | 12.9 | 0.00 | 0.00 | 0.00 | 91 | 1015.4 |
| 20260505160519 | 12 | 167 | 6.4 | 14.5 | 0.00 | 0.00 | 0.00 | 91 | 1015.4 |
| 20260505153040 | 12 | 184 | 6.4 | 12.9 | 0.00 | 0.00 | 0.00 | 90 | 1015.3 |
| 20260505152525 | 12 | 143 | 4.8 | 12.9 | 0.00 | 0.00 | 0.00 | 90 | 1015.3 |
| 20260505152023 | 12 | 192 | 6.4 | 11.3 | 0.00 | 0.00 | 0.00 | 90 | 1015.2 |
| 20260505151543 | 12 | 186 | 4.8 | 11.3 | 0.00 | 0.00 | 0.00 | 90 | 1015.2 |
| 20260505151024 | 12 | 158 | 4.8 | 12.9 | 0.00 | 0.00 | 0.00 | 90 | 1015.2 |
| 20260505150520 | 12 | 217 | 4.8 | 12.9 | 0.00 | 0.00 | 0.00 | 90 | 1015.0 |
| 20260505140521 | 13 | 148 | 3.2 | 11.3 | 0.00 | 0.00 | 0.00 | 86 | 1014.4 |
| 20260505125023 | 12 | 105 | 6.4 | 12.9 | 0.00 | 0.00 | 0.00 | 89 | 1013.2 |